GW1525 Weather Reports


time (UTC)temp
C
wind
direction
speed
KPH
gust
KPH
rain 1hr
cm
rain 24hr
cm
rain mn
cm
humidity
%
barometer
mb
20260505041538 5 28 8.0 14.5 0.00 0.00 0.00 81 1014.5
20260505034527 5 82 1.6 8.0 0.00 0.00 0.00 84 1014.6
20260505031521 2 84 3.2 8.0 0.00 0.00 0.00 92 1015.0
20260505024521 0 243 0.0 0.0 0.00 0.00 0.00 91 1015.1
20260505021526 1 243 0.0 0.0 0.00 0.00 0.00 91 1015.2
20260505020030 1 242 0.0 1.6 0.00 0.00 0.00 92 1015.3
20260505013025 0 244 0.0 1.6 0.00 0.00 0.00 90 1015.6
20260505011530 0 244 0.0 1.6 0.00 0.00 0.00 90 1015.7
20260505004526 0 244 0.0 1.6 0.00 0.00 0.00 88 1016.0
20260505003023 0 244 0.0 1.6 0.00 0.00 0.00 87 1016.2
20260505000024 1 242 0.0 3.2 0.00 0.00 0.00 87 1016.4
20260504234523 1 244 0.0 3.2 0.00 0.00 0.00 85 1016.4
20260504233019 2 242 0.0 1.6 0.00 0.00 0.00 83 1016.7
20260504230029 3 252 1.6 12.9 0.00 0.00 0.00 92 1017.1
20260504223027 2 306 0.0 0.0 0.00 0.00 0.00 88 1017.4
20260504220051 3 306 0.0 0.0 0.00 0.00 0.00 86 1017.6
20260504214523 4 306 0.0 6.4 0.00 0.00 0.00 87 1017.7
20260504213023 5 28 0.0 6.4 0.00 0.00 0.00 85 1017.6
20260504211523 6 91 4.8 11.3 0.00 0.00 0.00 88 1017.9
20260504204520 6 38 6.4 12.9 0.00 0.00 0.00 87 1017.9
20260504203016 6 360 6.4 11.3 0.00 0.00 0.00 86 1017.8
20260504200018 7 24 8.0 14.5 0.00 0.00 0.00 86 1018.0
20260504194509 7 57 8.0 14.5 0.00 0.00 0.00 87 1018.2
20260504193007 7 275 8.0 17.7 0.00 0.00 0.00 87 1017.9
20260504191340 7 121 8.0 17.7 0.00 0.00 0.00 87 1017.9
20260504181529 8 20 8.0 20.9 0.00 0.00 0.00 79 1017.9
20260504180026 8 102 11.3 22.5 0.00 0.00 0.00 76 1017.9
20260504173028 8 51 9.7 20.9 0.00 0.00 0.00 74 1017.9
20260504081523 11 238 4.8 11.3 0.00 0.00 0.00 64 1019.6